AAL2448 KPHX-KSEA

Flight info

Callsign AAL2448
Flight time N/A
Altitude 38000
Route QUAKY1 GCN WINEN NEERO KOATA PDT CHINS5
Aircraft A319/M-SDE3FGHIRWY/LB1

Departure

Time 2026-04-30 20:32
Airport Phoenix Sky Harbor International Airport (KPHX)

Arrival

Time N/A
Airport Seattle–Tacoma International Airport (KSEA)
Time Latitude Longitude Altitude Speed Heading
2026-04-30 20:15 33.43825 -111.99979 1124 ft 0 kts 128°
2026-04-30 20:21 33.43826 -111.99981 1124 ft 1 kts 128°
2026-04-30 20:21 33.43837 -111.99997 1114 ft 3 kts 126°
2026-04-30 20:21 33.43847 -112.00017 1114 ft 3 kts 99°
2026-04-30 20:21 33.43850 -112.00029 1115 ft 2 kts
2026-04-30 20:22 33.43847 -112.00030 1116 ft 0 kts 360°
2026-04-30 20:24 33.43848 -112.00030 1124 ft 1 kts 360°
2026-04-30 20:24 33.43873 -112.00029 1121 ft 5 kts
2026-04-30 20:24 33.43903 -111.99994 1122 ft 7 kts 69°
2026-04-30 20:25 33.43904 -111.99895 1124 ft 5 kts 90°
2026-04-30 20:25 33.43904 -111.99857 1124 ft 4 kts 90°
2026-04-30 20:26 33.43904 -111.99744 1124 ft 7 kts 90°
2026-04-30 20:26 33.43904 -111.99631 1124 ft 9 kts 90°
2026-04-30 20:26 33.43904 -111.99542 1124 ft 13 kts 90°
2026-04-30 20:27 33.43903 -111.99322 1124 ft 14 kts 90°
2026-04-30 20:27 33.43810 -111.99226 1122 ft 11 kts 180°
2026-04-30 20:28 33.43649 -111.99226 1119 ft 12 kts 180°
2026-04-30 20:28 33.43504 -111.99226 1120 ft 13 kts 180°
2026-04-30 20:29 33.43330 -111.99246 1119 ft 12 kts 180°
2026-04-30 20:30 33.43205 -111.99265 1122 ft 0 kts 224°
2026-04-30 20:30 33.43150 -111.99329 1121 ft 7 kts 224°
2026-04-30 20:31 33.43104 -111.99409 1123 ft 4 kts 269°
2026-04-30 20:32 33.43103 -112.01660 1127 ft 171 kts 270°
2026-04-30 20:32 33.43128 -112.04541 2242 ft 172 kts 270°
2026-04-30 20:33 33.43162 -112.05994 2827 ft 177 kts 271°
2026-04-30 20:33 33.43262 -112.09233 3473 ft 218 kts 271°
2026-04-30 20:33 33.43309 -112.11149 3858 ft 240 kts 271°
2026-04-30 20:34 33.43415 -112.15250 5438 ft 251 kts 271°
2026-04-30 20:34 33.44839 -112.18960 7093 ft 260 kts 325°
2026-04-30 20:35 33.46534 -112.19697 7953 ft 264 kts 355°
2026-04-30 20:35 33.48396 -112.19707 8885 ft 265 kts
2026-04-30 20:35 33.52109 -112.19621 10579 ft 269 kts
2026-04-30 20:36 33.53993 -112.19323 11176 ft 283 kts 12°
2026-04-30 20:36 33.55988 -112.18751 11451 ft 307 kts 13°
2026-04-30 20:36 33.60365 -112.17322 12393 ft 339 kts 22°
2026-04-30 20:37 33.62412 -112.15874 13103 ft 347 kts 38°
2026-04-30 20:37 33.64170 -112.13805 13830 ft 352 kts 46°
2026-04-30 20:37 33.65859 -112.11648 14473 ft 357 kts 46°
2026-04-30 20:37 33.67572 -112.09463 15116 ft 362 kts 46°
2026-04-30 20:38 33.69308 -112.07248 15754 ft 366 kts 46°
2026-04-30 20:38 33.71061 -112.05005 16387 ft 370 kts 46°
2026-04-30 20:38 33.72883 -112.02794 17012 ft 375 kts 40°
2026-04-30 20:39 33.77481 -111.99725 18249 ft 381 kts 15°
2026-04-30 20:39 33.80085 -111.99075 18782 ft 384 kts
2026-04-30 20:39 33.82736 -111.98586 19357 ft 387 kts
2026-04-30 20:40 33.88105 -111.97565 20464 ft 394 kts
2026-04-30 20:40 33.90828 -111.97042 21021 ft 398 kts
2026-04-30 20:40 33.93574 -111.96514 21555 ft 402 kts
2026-04-30 20:41 33.99152 -111.95450 22624 ft 409 kts
2026-04-30 20:41 34.01974 -111.94915 23161 ft 413 kts
2026-04-30 20:41 34.04815 -111.94374 23651 ft 416 kts
2026-04-30 20:41 34.07700 -111.93848 24073 ft 420 kts
2026-04-30 20:42 34.10617 -111.93731 24464 ft 420 kts 353°
2026-04-30 20:42 34.13533 -111.94042 24880 ft 423 kts 351°
2026-04-30 20:42 34.19436 -111.94706 25696 ft 429 kts 350°
2026-04-30 20:43 34.22419 -111.95034 26119 ft 432 kts 350°
2026-04-30 20:43 34.25461 -111.95366 26536 ft 435 kts 350°
2026-04-30 20:43 34.28482 -111.95698 26936 ft 437 kts 350°
2026-04-30 20:44 34.34576 -111.96373 27743 ft 442 kts 350°
2026-04-30 20:44 34.37645 -111.96713 28159 ft 444 kts 350°
2026-04-30 20:44 34.43842 -111.97404 28978 ft 449 kts 349°
2026-04-30 20:45 34.50096 -111.98092 29796 ft 453 kts 350°
2026-04-30 20:45 34.53242 -111.98432 30135 ft 455 kts 350°
2026-04-30 20:45 34.56408 -111.98783 30450 ft 458 kts 350°
2026-04-30 20:46 34.65999 -111.99848 31336 ft 465 kts 350°
2026-04-30 20:46 34.69223 -112.00208 31614 ft 468 kts 350°
2026-04-30 20:47 34.75734 -112.00929 32261 ft 470 kts 350°
2026-04-30 20:47 34.79030 -112.01295 32677 ft 469 kts 350°
2026-04-30 20:48 34.85489 -112.02020 33462 ft 469 kts 349°
2026-04-30 20:48 34.88776 -112.02389 33874 ft 468 kts 349°
2026-04-30 20:48 34.92019 -112.02755 34221 ft 468 kts 349°
2026-04-30 20:48 34.95258 -112.03121 34545 ft 467 kts 349°
2026-04-30 20:49 34.98488 -112.03482 34859 ft 466 kts 349°
2026-04-30 20:49 35.01720 -112.03843 35165 ft 466 kts 350°
2026-04-30 20:49 35.04948 -112.04203 35488 ft 466 kts 349°
2026-04-30 20:50 35.11400 -112.04931 36113 ft 465 kts 349°
2026-04-30 20:50 35.14620 -112.05298 36406 ft 465 kts 350°
2026-04-30 20:50 35.17835 -112.05665 36688 ft 465 kts 349°
2026-04-30 20:50 35.21057 -112.06037 36969 ft 464 kts 349°
2026-04-30 20:51 35.24274 -112.06408 37250 ft 464 kts 349°
2026-04-30 20:51 35.30706 -112.07135 37775 ft 464 kts 349°
2026-04-30 20:51 35.33917 -112.07500 38002 ft 464 kts 349°
2026-04-30 20:52 35.40362 -112.08212 38046 ft 460 kts 350°
2026-04-30 20:53 35.49896 -112.09142 38002 ft 457 kts 351°
2026-04-30 20:53 35.56224 -112.09768 37973 ft 455 kts 350°
2026-04-30 20:54 35.65678 -112.10921 37968 ft 452 kts 349°
2026-04-30 20:55 35.75063 -112.12091 38043 ft 451 kts 350°
2026-04-30 20:55 35.81312 -112.12841 38086 ft 450 kts 350°
2026-04-30 20:56 35.89634 -112.13830 38114 ft 448 kts 351°
2026-04-30 20:56 35.95757 -112.15004 38110 ft 441 kts 339°
2026-04-30 20:57 35.98601 -112.16341 38114 ft 435 kts 330°
2026-04-30 20:57 36.03904 -112.19862 38106 ft 433 kts 328°
2026-04-30 20:58 36.11879 -112.25183 38056 ft 431 kts 328°
2026-04-30 20:58 36.17156 -112.28712 38020 ft 431 kts 328°
2026-04-30 20:59 36.25051 -112.34014 37970 ft 430 kts 328°
2026-04-30 21:00 36.35545 -112.41086 37953 ft 428 kts 328°
2026-04-30 21:01 36.43395 -112.46372 37949 ft 427 kts 328°
2026-04-30 21:02 36.51216 -112.51658 37942 ft 426 kts 328°
2026-04-30 21:02 36.56453 -112.55207 37954 ft 425 kts 328°
2026-04-30 21:03 36.61605 -112.58708 37957 ft 424 kts 328°
2026-04-30 21:03 36.66816 -112.62239 37951 ft 423 kts 328°
2026-04-30 21:04 36.71972 -112.65756 37951 ft 421 kts 328°
2026-04-30 21:04 36.79664 -112.71014 37985 ft 420 kts 328°
2026-04-30 21:05 36.84784 -112.74508 38013 ft 419 kts 328°
2026-04-30 21:05 36.89895 -112.78000 38039 ft 418 kts 328°
2026-04-30 21:06 36.94989 -112.81488 38058 ft 417 kts 328°
2026-04-30 21:06 37.00073 -112.84979 38063 ft 416 kts 327°
2026-04-30 21:07 37.05140 -112.88468 38062 ft 415 kts 327°
2026-04-30 21:07 37.10202 -112.91958 38050 ft 415 kts 327°
2026-04-30 21:08 37.15258 -112.95439 38028 ft 414 kts 327°
2026-04-30 21:08 37.20300 -112.98928 38003 ft 414 kts 327°
2026-04-30 21:09 37.25372 -113.02432 37982 ft 414 kts 327°
2026-04-30 21:09 37.30413 -113.05924 37964 ft 414 kts 327°
2026-04-30 21:10 37.35442 -113.09427 37972 ft 413 kts 327°
2026-04-30 21:10 37.40465 -113.12920 38004 ft 413 kts 327°
2026-04-30 21:11 37.45497 -113.16413 38040 ft 413 kts 327°
2026-04-30 21:11 37.50518 -113.19911 38064 ft 412 kts 327°
2026-04-30 21:12 37.55534 -113.23411 38080 ft 412 kts 326°
2026-04-30 21:12 37.60539 -113.26914 38086 ft 411 kts 326°
2026-04-30 21:13 37.65543 -113.30416 38079 ft 411 kts 326°
2026-04-30 21:13 37.70543 -113.33932 38070 ft 411 kts 326°
2026-04-30 21:14 37.75544 -113.37449 38059 ft 411 kts 326°
2026-04-30 21:14 37.80542 -113.40967 38046 ft 411 kts 326°
2026-04-30 21:15 37.85578 -113.44516 38029 ft 411 kts 326°
2026-04-30 21:15 37.90578 -113.48043 38017 ft 411 kts 326°
2026-04-30 21:16 37.95265 -113.52058 38023 ft 404 kts 315°
2026-04-30 21:16 37.99534 -113.56682 38019 ft 403 kts 316°
2026-04-30 21:17 38.03802 -113.61296 38034 ft 403 kts 316°
2026-04-30 21:17 38.08064 -113.65907 38034 ft 402 kts 315°
2026-04-30 21:18 38.12348 -113.70555 38028 ft 402 kts 316°
2026-04-30 21:18 38.16594 -113.75162 38033 ft 401 kts 315°
2026-04-30 21:19 38.20830 -113.79776 38049 ft 401 kts 316°
2026-04-30 21:19 38.25061 -113.84384 38045 ft 400 kts 316°
2026-04-30 21:20 38.29289 -113.88999 38047 ft 400 kts 315°
2026-04-30 21:20 38.33515 -113.93625 38047 ft 400 kts 316°
2026-04-30 21:21 38.37734 -113.98242 38049 ft 399 kts 316°
2026-04-30 21:22 38.44074 -114.05196 38051 ft 399 kts 315°
2026-04-30 21:23 38.52451 -114.14405 38054 ft 398 kts 315°
2026-04-30 21:23 38.58749 -114.21355 38053 ft 397 kts 315°
2026-04-30 21:24 38.62921 -114.25972 38051 ft 397 kts 315°
2026-04-30 21:24 38.66385 -114.29809 38051 ft 396 kts 315°
2026-04-30 21:25 38.72664 -114.36767 38050 ft 396 kts 315°
2026-04-30 21:26 38.78896 -114.43704 38048 ft 395 kts 315°
2026-04-30 21:27 38.85120 -114.50638 38045 ft 395 kts 315°
2026-04-30 21:27 38.89262 -114.55264 38048 ft 395 kts 315°
2026-04-30 21:28 38.95474 -114.62210 38030 ft 394 kts 315°
2026-04-30 21:29 39.01664 -114.69157 38063 ft 394 kts 315°
2026-04-30 21:30 39.11971 -114.80753 38120 ft 393 kts 315°
2026-04-30 21:31 39.22262 -114.92380 38159 ft 392 kts 316°
2026-04-30 21:32 39.28407 -114.99337 38154 ft 392 kts 315°
2026-04-30 21:32 39.32493 -115.03982 38137 ft 391 kts 315°
2026-04-30 21:33 39.38604 -115.10952 38103 ft 390 kts 315°
2026-04-30 21:34 39.42678 -115.15598 38078 ft 390 kts 315°
2026-04-30 21:34 39.48781 -115.22567 38052 ft 390 kts 315°
2026-04-30 21:35 39.52869 -115.27244 38051 ft 389 kts 315°
2026-04-30 21:35 39.56928 -115.31891 38050 ft 389 kts 315°
2026-04-30 21:36 39.60976 -115.36544 38053 ft 389 kts 315°
2026-04-30 21:37 39.69058 -115.45855 38053 ft 388 kts 315°
2026-04-30 21:37 39.73094 -115.50518 38055 ft 388 kts 315°
2026-04-30 21:38 39.77123 -115.55180 38061 ft 388 kts 315°
2026-04-30 21:38 39.81158 -115.59846 38062 ft 388 kts 316°
2026-04-30 21:39 39.85188 -115.64514 38058 ft 388 kts 315°
2026-04-30 21:39 39.89206 -115.69188 38057 ft 388 kts 315°
2026-04-30 21:40 39.93227 -115.73866 38054 ft 387 kts 316°
2026-04-30 21:40 39.97247 -115.78552 38050 ft 387 kts 315°
2026-04-30 21:41 40.01254 -115.83232 38041 ft 386 kts 316°
2026-04-30 21:41 40.05262 -115.87927 38055 ft 388 kts 315°
2026-04-30 21:42 40.09275 -115.92629 38053 ft 387 kts 316°
2026-04-30 21:42 40.13286 -115.97327 38055 ft 387 kts 316°
2026-04-30 21:43 40.17291 -116.02038 38049 ft 387 kts 315°
2026-04-30 21:43 40.21314 -116.06787 38052 ft 387 kts 316°
2026-04-30 21:44 40.25323 -116.11507 38050 ft 388 kts 316°
2026-04-30 21:44 40.29327 -116.16236 38052 ft 387 kts 316°
2026-04-30 21:45 40.33327 -116.20971 38052 ft 388 kts 316°
2026-04-30 21:45 40.37328 -116.25705 38051 ft 388 kts 316°
2026-04-30 21:46 40.41360 -116.30500 38053 ft 388 kts 316°
2026-04-30 21:46 40.45383 -116.35290 38047 ft 388 kts 316°
2026-04-30 21:47 40.49384 -116.40054 38056 ft 388 kts 316°
2026-04-30 21:47 40.53382 -116.44824 38062 ft 388 kts 316°
2026-04-30 21:48 40.57375 -116.49599 38076 ft 388 kts 316°
2026-04-30 21:48 40.61369 -116.54380 38087 ft 388 kts 316°
2026-04-30 21:49 40.65361 -116.59161 38096 ft 388 kts 316°
2026-04-30 21:49 40.69361 -116.63957 38102 ft 388 kts 316°
2026-04-30 21:50 40.73377 -116.68790 38103 ft 388 kts 316°
2026-04-30 21:50 40.77358 -116.73599 38105 ft 388 kts 316°
2026-04-30 21:51 40.81339 -116.78418 38094 ft 388 kts 316°
2026-04-30 21:51 40.85327 -116.83242 38085 ft 389 kts 316°
2026-04-30 21:52 40.89312 -116.88072 38075 ft 389 kts 316°
2026-04-30 21:52 40.93299 -116.92902 38061 ft 389 kts 316°
2026-04-30 21:53 40.96615 -116.96931 38052 ft 389 kts 316°
2026-04-30 21:53 41.00601 -117.01786 38052 ft 389 kts 316°
2026-04-30 21:54 41.04582 -117.06647 38050 ft 390 kts 316°
2026-04-30 21:54 41.08569 -117.11520 38056 ft 390 kts 316°
2026-04-30 21:55 41.12585 -117.16426 38058 ft 390 kts 316°
2026-04-30 21:55 41.16571 -117.21315 38059 ft 390 kts 316°
2026-04-30 21:56 41.20557 -117.26209 38060 ft 391 kts 316°
2026-04-30 21:56 41.24546 -117.31113 38066 ft 391 kts 316°
2026-04-30 21:57 41.28536 -117.36028 38071 ft 391 kts 316°
2026-04-30 21:57 41.32516 -117.40949 38069 ft 391 kts 316°
2026-04-30 21:58 41.36501 -117.45877 38073 ft 391 kts 316°
2026-04-30 21:58 41.40480 -117.50813 38073 ft 391 kts 316°
2026-04-30 21:59 41.44460 -117.55751 38078 ft 391 kts 316°
2026-04-30 22:00 41.50551 -117.63315 38083 ft 402 kts 316°
2026-04-30 22:00 41.56702 -117.70990 38079 ft 404 kts 316°
2026-04-30 22:01 41.60812 -117.76132 38085 ft 405 kts 316°
2026-04-30 22:01 41.64918 -117.81282 38084 ft 405 kts 316°
2026-04-30 22:02 41.69083 -117.86506 38087 ft 414 kts 316°
2026-04-30 22:02 41.73293 -117.91797 38087 ft 416 kts 316°
2026-04-30 22:03 41.77513 -117.97122 38090 ft 417 kts 316°
2026-04-30 22:03 41.81923 -118.02231 38089 ft 418 kts 326°
2026-04-30 22:04 41.87213 -118.05560 38102 ft 420 kts 335°
2026-04-30 22:05 41.95295 -118.10153 38117 ft 420 kts 335°
2026-04-30 22:05 42.00679 -118.13227 38125 ft 420 kts 335°
2026-04-30 22:06 42.06095 -118.16324 38133 ft 421 kts 335°
2026-04-30 22:06 42.14167 -118.20942 38136 ft 420 kts 335°
2026-04-30 22:07 42.19554 -118.24027 38134 ft 420 kts 335°
2026-04-30 22:07 42.24935 -118.27122 38134 ft 420 kts 335°
2026-04-30 22:08 42.30353 -118.30238 38137 ft 420 kts 335°
2026-04-30 22:08 42.35730 -118.33345 38144 ft 420 kts 335°
2026-04-30 22:09 42.41107 -118.36455 38141 ft 420 kts 335°
2026-04-30 22:09 42.46480 -118.39563 38146 ft 420 kts 335°
2026-04-30 22:10 42.51854 -118.42677 38148 ft 420 kts 335°
2026-04-30 22:10 42.57223 -118.45792 38156 ft 420 kts 335°
2026-04-30 22:11 42.65308 -118.50494 38159 ft 419 kts 335°
2026-04-30 22:12 42.70665 -118.53619 38157 ft 419 kts 335°
2026-04-30 22:12 42.76023 -118.56756 38167 ft 420 kts 335°
2026-04-30 22:13 42.81387 -118.59902 38159 ft 419 kts 335°
2026-04-30 22:13 42.86741 -118.63051 38168 ft 419 kts 335°
2026-04-30 22:14 42.92090 -118.66200 38167 ft 419 kts 335°
2026-04-30 22:14 42.97437 -118.69348 38165 ft 418 kts 335°
2026-04-30 22:15 43.02776 -118.72499 38172 ft 418 kts 335°
2026-04-30 22:15 43.08142 -118.75671 38162 ft 417 kts 336°
2026-04-30 22:16 43.13469 -118.78824 38164 ft 417 kts 335°
2026-04-30 22:17 43.24116 -118.85146 38175 ft 417 kts 335°
2026-04-30 22:17 43.32088 -118.89914 38183 ft 416 kts 336°
2026-04-30 22:18 43.40061 -118.94664 38197 ft 416 kts 336°
2026-04-30 22:19 43.45630 -118.96729 38201 ft 419 kts 354°
2026-04-30 22:19 43.48557 -118.96776 38219 ft 420 kts 358°
2026-04-30 22:20 43.57330 -118.96671 38213 ft 420 kts 358°
2026-04-30 22:20 43.66087 -118.96554 38214 ft 419 kts 358°
2026-04-30 22:21 43.71922 -118.96481 38211 ft 419 kts 358°
2026-04-30 22:21 43.77748 -118.96410 38207 ft 419 kts 358°
2026-04-30 22:22 43.82632 -118.96347 38199 ft 419 kts 358°
2026-04-30 22:22 43.88453 -118.96266 38195 ft 418 kts 358°
2026-04-30 22:23 43.94272 -118.96193 38190 ft 418 kts 358°
2026-04-30 22:23 44.00087 -118.96119 38188 ft 418 kts 358°
2026-04-30 22:24 44.05903 -118.96045 38188 ft 418 kts 358°
2026-04-30 22:24 44.11710 -118.95968 38185 ft 417 kts 358°
2026-04-30 22:25 44.17519 -118.95896 38183 ft 417 kts 358°
2026-04-30 22:25 44.23324 -118.95818 38180 ft 417 kts 358°
2026-04-30 22:26 44.32022 -118.95707 38178 ft 416 kts 358°
2026-04-30 22:27 44.37816 -118.95643 38170 ft 416 kts 358°
2026-04-30 22:27 44.46534 -118.95525 38171 ft 416 kts 358°
2026-04-30 22:28 44.55217 -118.95401 38166 ft 416 kts 358°
2026-04-30 22:29 44.66794 -118.95246 38161 ft 416 kts 358°
2026-04-30 22:31 44.87062 -118.94987 38159 ft 416 kts 358°
2026-04-30 22:32 45.01516 -118.94805 38153 ft 416 kts 358°
2026-04-30 22:33 45.15975 -118.94606 38159 ft 415 kts 358°
2026-04-30 22:35 45.30428 -118.94408 38162 ft 415 kts 358°
2026-04-30 22:36 45.44925 -118.94203 38156 ft 416 kts 358°
2026-04-30 22:37 45.56507 -118.94056 38168 ft 416 kts 358°
2026-04-30 22:38 45.67993 -118.94904 38163 ft 412 kts 340°
2026-04-30 22:38 45.72873 -118.99113 38147 ft 415 kts 317°
2026-04-30 22:39 45.74800 -119.02206 38149 ft 417 kts 313°
2026-04-30 22:40 45.86073 -119.21268 38140 ft 417 kts 313°
2026-04-30 22:41 45.95417 -119.37187 38144 ft 417 kts 313°
2026-04-30 22:43 46.06585 -119.56341 38137 ft 416 kts 313°
2026-04-30 22:44 46.13997 -119.69104 38144 ft 415 kts 313°
2026-04-30 22:45 46.21242 -119.81646 37056 ft 401 kts 313°
2026-04-30 22:45 46.24696 -119.87648 36786 ft 375 kts 313°
2026-04-30 22:46 46.27943 -119.93315 36620 ft 366 kts 313°
2026-04-30 22:47 46.34507 -120.04746 36284 ft 370 kts 313°
2026-04-30 22:47 46.37793 -120.10508 36114 ft 371 kts 313°
2026-04-30 22:48 46.41069 -120.16272 35957 ft 370 kts 313°
2026-04-30 22:49 46.46052 -120.25028 34478 ft 379 kts 313°
2026-04-30 22:49 46.51166 -120.34054 31730 ft 394 kts 313°
2026-04-30 22:50 46.58250 -120.46770 28065 ft 405 kts 310°
2026-04-30 22:51 46.61456 -120.53405 26796 ft 398 kts 307°
2026-04-30 22:51 46.64513 -120.60035 25559 ft 392 kts 307°
2026-04-30 22:52 46.66065 -120.63355 25229 ft 404 kts 307°
2026-04-30 22:52 46.69318 -120.70218 23573 ft 414 kts 307°
2026-04-30 22:53 46.72538 -120.76984 22416 ft 400 kts 307°
2026-04-30 22:53 46.75168 -120.82525 21505 ft 393 kts 307°
2026-04-30 22:53 46.76716 -120.85794 20984 ft 390 kts 306°
2026-04-30 22:54 46.79769 -120.92270 20009 ft 385 kts 306°
2026-04-30 22:55 46.84259 -121.01803 18604 ft 375 kts 306°
2026-04-30 22:55 46.87197 -121.08077 17424 ft 372 kts 306°
2026-04-30 22:56 46.90087 -121.14247 16437 ft 364 kts 306°
2026-04-30 22:56 46.94360 -121.23380 14907 ft 363 kts 303°
2026-04-30 22:57 46.97198 -121.29469 13844 ft 362 kts 303°
2026-04-30 22:57 47.00031 -121.35574 12758 ft 357 kts 303°
2026-04-30 22:58 47.02729 -121.41386 12466 ft 332 kts 303°
2026-04-30 22:59 47.06440 -121.49413 11990 ft 307 kts 303°
2026-04-30 22:59 47.10019 -121.57185 12011 ft 307 kts 303°